Waukegan, IL

8:22 PM CST on November 19, 2019 (GMT -0600)
Waukegan Regional

Weather History for KUGN - October, 2019

Change the Weather History Date:

Sunday, October 13, 2019

  Actual Average Record
Temperature  
Mean Temperature 43 °F 52 °F  
Max Temperature 46 °F 61 °F 77 °F (1996)
Min Temperature 39 °F 43 °F 31 °F (2009)
Degree Days  
Heating Degree Days 22 13  
Month to date heating degree days 131 153  
Since 1 July heating degree days 167 319  
Cooling Degree Days 0 0  
Month to date cooling degree days 5 7  
Year to date cooling degree days 597 564  
Moisture  
Dew Point 32 °F    
Average Humidity 65    
Maximum Humidity 82    
Minimum Humidity 56    
Precipitation  
Precipitation 0.00 in 0.09 in 2.84 in (2001)
Month to date precipitation 3.22 1.31  
Year to date precipitation 42.35 29.22  
Sea Level Pressure  
Sea Level Pressure 29.85 in    
Wind  
Wind Speed 6 mph ()    
Max Wind Speed 18 mph    
Max Gust Speed 30 mph    
Visibility 10.0 miles    
Events Rain    
T = Trace of Precipitation, MM = Missing Value Source: Averaged Metar Reports

Daily Weather History Graph

Daily Weather History Graph

Search for Another Location

Airport or City:

Astronomy

Oct. 13, 2019 Rise Set
Actual Time 7:01 AM CDT 6:12 PM CDT
Civil Twilight 6:33 AM CDT 6:41 PM CDT
Nautical Twilight 6:00 AM CDT 7:13 PM CDT
Astronomical Twilight 5:28 AM CDT 7:46 PM CDT
Moon 6:36 PM CDT (10/13) 6:33 AM CDT (10/13)
Length of Visible Light 12h 07m
Length of Day
11h 11m
Full, 100% of the Moon is Illuminated
Oct 13
Full
Oct 13
Full
Oct 21
Last Quarter
Oct 27
New
Nov 4
First Quarter

Hourly Weather History & Observations

Time (CDT) Temp. Windchill Dew Point Humidity Pressure Visibility Wind Dir Wind Speed Gust Speed Precip Events Conditions
12:55 AM 39.0 °F 36.8 °F 34.0 °F 82% 29.83 in 10.0 mi WSW 3.5 mph - N/A   Mostly Cloudy
1:55 AM 39.9 °F 36.7 °F 34.0 °F 79% 29.83 in 10.0 mi SW 4.6 mph - N/A   Mostly Cloudy
2:55 AM 41.0 °F 36.4 °F 34.0 °F 76% 29.82 in 10.0 mi SSW 6.9 mph - N/A   Overcast
3:55 AM 41.0 °F 35.8 °F 34.0 °F 76% 29.81 in 10.0 mi SSW 8.1 mph - N/A   Partly Cloudy
4:55 AM 41.0 °F 35.2 °F 33.1 °F 73% 29.79 in 10.0 mi SW 9.2 mph - N/A   Overcast
5:55 AM 42.1 °F 35.7 °F 32.0 °F 67% 29.80 in 10.0 mi SW 11.5 mph - N/A   Overcast
6:55 AM 41.0 °F 34.7 °F 30.9 °F 67% 29.81 in 10.0 mi SW 10.4 mph - N/A   Overcast
7:55 AM 41.0 °F 35.2 °F 30.9 °F 67% 29.81 in 10.0 mi WSW 9.2 mph 18.4 mph N/A   Overcast
8:55 AM 41.0 °F 35.2 °F 30.9 °F 67% 29.82 in 10.0 mi WSW 9.2 mph 23.0 mph N/A   Mostly Cloudy
9:55 AM 43.0 °F 37.7 °F 30.9 °F 62% 29.84 in 10.0 mi WSW 9.2 mph - N/A   Overcast
10:55 AM 44.1 °F 38.6 °F 30.9 °F 60% 29.84 in 10.0 mi WSW 10.4 mph 21.9 mph N/A   Overcast
11:55 AM 45.0 °F 39.3 °F 30.9 °F 58% 29.83 in 10.0 mi West 11.5 mph 29.9 mph 0.00 in Rain Light Rain
12:55 PM 46.9 °F - 32.0 °F 56% 29.82 in 10.0 mi WSW 10.4 mph 28.8 mph 0.00 in   Overcast
1:55 PM 46.0 °F 42.5 °F 32.0 °F 58% 29.82 in 10.0 mi West 6.9 mph - 0.00 in   Overcast
2:55 PM 46.0 °F 41.9 °F 32.0 °F 58% 29.83 in 10.0 mi WNW 8.1 mph - N/A   Overcast
3:55 PM 46.0 °F 43.9 °F 32.0 °F 58% 29.84 in 10.0 mi Variable 4.6 mph - N/A   Overcast
4:55 PM 46.9 °F - 32.0 °F 56% 29.86 in 10.0 mi WNW 8.1 mph 17.3 mph 0.00 in   Overcast
5:55 PM 45.0 °F 40.6 °F 32.0 °F 60% 29.88 in 10.0 mi WNW 8.1 mph - 0.00 in   Overcast
6:55 PM 44.1 °F 40.8 °F 30.9 °F 60% 29.90 in 10.0 mi Variable 5.8 mph - N/A   Overcast
7:55 PM 44.1 °F 40.8 °F 32.0 °F 63% 29.94 in 10.0 mi Variable 5.8 mph - N/A   Overcast
8:55 PM 43.0 °F 41.3 °F 32.0 °F 65% 29.94 in 10.0 mi West 3.5 mph - N/A   Overcast
9:55 PM 44.1 °F 41.5 °F 30.9 °F 60% 29.94 in 10.0 mi Variable 4.6 mph - N/A   Overcast
10:55 PM 43.0 °F 40.3 °F 30.9 °F 62% 29.94 in 10.0 mi Variable 4.6 mph - N/A   Overcast
11:55 PM 43.0 °F 39.5 °F 30.0 °F 60% 29.94 in 10.0 mi Variable 5.8 mph - N/A   Overcast